Wind_Speed
17 17 18 18 19 18 18 18 18 18 18 18 17 17 17 17 16 16 15 15 16 16 17 17 17 17 17 16 16 16 15 15 15 15 14 15 15 15 14 13 12 11 11 11 10 9 9 9 9
18 19 19 19 19 18 18 18 19 19 19 19 19 19 19 19 19 18 17 17 17 17 18 18 18 19 19 18 18 17 17 17 17 16 16 16 16 16 15 15 14 14 13 12 12 11 11 11 10
19 19 20 20 20 19 19 19 20 20 20 21 21 21 21 20 20 20 20 19 19 19 20 20 20 20 20 20 20 19 19 19 18 18 17 17 17 18 17 16 16 15 15 14 13 13 12 12 12
20 20 21 21 21 21 21 21 21 21 22 23 23 23 23 22 22 22 22 22 21 22 22 21 21 22 22 22 22 21 21 21 20 20 19 19 18 18 19 19 18 17 17 16 15 15 14 14 14
21 21 21 21 21 22 22 23 23 23 24 24 25 25 24 24 24 24 24 24 24 24 24 23 23 23 23 23 23 23 23 23 22 22 21 21 21 20 20 20 20 20 18 17 17 17 16 15 15
22 23 23 23 23 23 24 25 25 26 26 27 27 27 26 26 26 26 26 26 26 26 26 25 25 25 25 24 25 25 24 24 24 23 23 22 22 22 22 22 22 22 21 20 19 19 18 17 17
23 24 24 24 24 25 25 26 27 28 28 28 29 29 28 28 27 27 27 28 28 28 27 27 28 27 27 27 26 26 26 26 25 25 25 24 24 24 24 24 24 23 23 23 22 20 20 20 20
24 24 25 25 25 26 26 27 27 28 29 29 30 30 29 29 29 29 29 29 30 30 29 29 30 30 29 29 28 28 28 28 28 27 27 27 26 26 26 26 26 25 25 25 25 24 23 22 22
24 25 25 24 25 25 26 27 27 28 29 30 31 31 31 31 31 31 31 31 31 31 31 31 31 31 31 31 31 30 30 30 30 29 29 28 29 28 28 28 28 28 27 27 27 26 26 25 23
25 25 25 25 26 26 26 27 28 29 30 30 31 32 32 33 33 34 33 33 33 33 33 33 33 33 33 33 33 32 32 32 31 31 31 30 30 30 30 30 30 30 30 29 29 29 28 27 27
25 25 26 26 27 27 27 28 28 29 31 31 32 32 33 34 34 35 35 35 34 35 34 34 34 34 34 34 35 35 34 34 33 33 33 33 32 32 32 32 31 31 31 31 30 30 30 29 29
26 26 26 26 28 28 29 29 29 31 32 33 33 33 34 35 35 36 36 37 37 37 37 36 36 36 36 36 37 37 37 36 35 35 35 35 34 34 34 34 34 33 33 33 33 32 32 31 31
27 27 27 28 29 29 30 30 30 31 33 34 34 35 36 36 36 37 38 38 38 38 39 38 38 38 38 39 39 39 38 38 38 37 37 37 36 36 36 36 36 35 35 35 36 35 35 33 33
27 28 28 29 29 30 31 31 32 31 33 34 35 36 37 37 37 38 39 39 39 40 40 40 40 40 41 41 41 41 40 40 40 39 39 38 38 38 38 38 38 38 37 37 37 37 36 36 35
26 28 29 29 30 31 32 32 32 32 34 35 36 37 37 38 38 38 39 40 41 41 41 42 42 42 42 42 42 42 42 42 41 41 41 41 40 40 40 40 39 39 39 39 38 38 38 38 38
27 28 29 30 31 32 34 33 33 34 35 35 36 38 38 39 39 38 40 41 41 42 43 43 43 43 43 43 43 43 43 43 43 43 42 42 42 42 42 41 40 40 41 40 40 39 39 40 40
27 28 29 30 31 33 34 33 34 35 36 36 37 38 38 39 39 39 40 42 42 43 43 43 44 44 44 45 44 44 44 44 45 44 43 43 43 42 42 42 42 42 42 42 41 41 41 41 41
28 29 30 30 31 33 33 33 33 34 35 36 37 38 38 39 39 39 41 42 43 43 43 44 44 44 44 46 46 46 46 45 45 45 45 44 44 44 44 44 43 43 43 43 43 43 43 43 43
30 31 32 32 33 34 33 33 33 34 35 35 36 38 39 39 39 39 41 42 43 44 44 45 46 46 46 47 48 48 48 47 47 47 47 46 46 46 46 45 45 45 44 45 44 45 44 45 45
30 31 32 32 33 34 34 33 34 34 35 36 37 38 39 39 39 39 41 42 42 43 44 45 46 47 47 47 48 49 48 48 49 49 49 49 48 48 48 48 47 47 46 46 47 47 46 47 47
31 31 32 32 33 34 35 34 34 34 35 36 36 37 38 39 40 40 41 43 43 42 42 44 45 46 47 47 48 49 49 49 49 49 50 50 49 49 49 49 49 48 48 48 48 48 49 49 48
31 31 32 32 33 34 35 36 33 34 35 35 35 35 37 39 40 40 41 43 42 42 43 44 45 46 46 47 48 49 50 50 50 50 50 51 51 52 51 51 50 49 50 50 49 49 50 50 50
31 31 31 32 33 34 35 36 34 33 33 34 34 34 35 36 38 39 41 42 42 42 42 43 44 45 46 47 48 49 49 50 50 50 51 51 52 52 52 52 51 51 51 51 51 50 50 51 51
31 31 32 33 33 34 33 35 34 33 32 32 33 33 34 34 35 37 39 40 41 41 42 43 43 44 45 46 47 48 49 50 50 50 51 52 53 53 53 53 52 53 53 53 52 52 52 52 51
31 32 33 33 34 33 33 34 34 33 32 32 32 32 33 34 34 35 37 39 40 40 41 42 43 44 45 46 47 48 49 50 50 50 51 52 53 54 54 54 53 53 53 53 52 51 52 52 52
30 31 32 34 35 35 34 35 34 34 33 32 32 32 33 33 34 34 36 37 38 39 40 41 43 44 45 46 47 48 49 50 50 50 51 52 52 53 54 55 54 55 54 54 53 53 53 53 53
31 31 32 34 36 36 35 34 34 33 34 33 33 33 32 32 33 35 35 36 36 37 37 39 42 43 45 46 47 48 49 49 50 50 51 52 52 53 54 55 56 56 56 55 54 54 53 53 53
31 31 32 34 36 37 37 35 34 34 34 33 33 33 33 34 34 35 35 36 37 37 37 38 40 42 43 45 46 47 48 49 50 51 52 52 53 53 54 54 55 56 55 55 55 54 53 53 54
30 31 32 34 36 37 38 35 33 34 34 33 33 32 32 33 34 34 34 34 34 35 36 38 40 41 43 44 44 46 48 49 50 51 52 52 53 53 54 54 55 55 55 54 55 54 54 54 54
32 32 32 33 34 36 38 35 33 34 34 34 33 32 32 32 32 33 34 34 35 35 36 37 39 40 41 42 43 45 47 49 50 51 52 52 52 52 53 53 53 54 54 54 54 55 55 55 55
Wind_Direction
253 252 252 252 252 251 250 248 248 249 249 250 249 249 248 249 250 251 251 251 251 250 249 249 248 246 244 244 244 243 242 242 242 242 244 242 239 239 240 240 241 243 245 245 245 243 239 237 232
254 253 253 254 254 254 252 252 250 250 251 250 250 250 249 250 251 251 251 251 250 250 250 251 249 247 246 246 245 244 244 244 243 243 244 244 242 239 241 242 242 244 245 246 247 247 243 242 240
257 255 255 255 256 255 254 254 253 251 252 252 252 251 252 252 253 253 251 250 250 251 251 252 252 250 248 247 246 244 243 243 244 244 244 246 246 242 243 244 244 245 245 245 246 245 246 244 242
258 257 257 257 257 256 257 256 254 253 253 253 254 253 253 254 254 254 253 252 251 252 252 252 252 252 250 249 247 246 244 244 245 245 245 245 247 247 247 246 247 247 247 247 247 245 245 245 243
258 258 259 259 259 258 258 257 256 255 255 254 254 255 254 254 254 254 254 253 252 252 252 253 252 251 251 250 248 246 246 246 246 246 246 247 247 247 248 248 248 248 248 249 250 247 246 247 246
259 259 260 261 261 260 260 259 257 256 255 255 255 255 255 254 254 254 254 254 253 253 252 252 252 251 250 250 250 248 247 247 247 247 247 248 248 248 249 249 249 249 249 249 249 248 247 248 248
261 261 262 261 260 260 260 260 259 257 256 255 255 254 255 254 253 253 253 254 254 253 253 252 252 252 252 251 250 249 248 247 247 247 248 249 249 249 249 250 250 251 250 250 250 250 249 249 248
264 263 262 261 261 261 262 261 261 259 257 256 255 255 254 255 254 253 253 253 253 253 253 252 252 253 252 252 250 250 249 248 248 248 248 249 249 249 249 251 251 251 252 252 252 253 251 251 249
265 264 263 262 262 263 262 262 261 260 258 257 256 255 255 255 255 254 253 253 253 253 253 253 252 252 252 251 251 250 250 250 249 248 248 249 249 249 250 252 253 253 253 254 254 254 253 252 251
266 265 264 264 264 264 263 262 262 261 259 257 257 257 256 256 256 255 254 254 254 253 252 252 252 252 252 252 251 251 250 251 251 249 248 249 249 250 251 252 253 254 254 254 255 254 254 253 253
268 266 265 264 264 264 264 263 263 263 261 259 259 258 258 258 257 256 256 255 253 253 252 252 252 252 252 251 251 251 251 251 251 251 249 249 249 250 251 252 253 253 254 255 255 255 255 254 254
269 266 265 264 264 265 264 263 264 264 263 261 260 260 259 259 258 257 256 255 254 254 253 252 251 252 252 251 250 250 251 250 251 251 250 249 248 249 251 252 253 254 254 255 256 257 256 256 256
269 267 266 266 265 265 264 264 264 266 266 263 261 261 261 259 259 258 257 255 254 254 253 252 252 252 252 251 251 250 250 251 251 251 251 249 249 249 250 252 253 253 254 256 257 258 257 257 257
271 269 267 267 268 267 266 266 266 267 266 264 263 262 261 260 259 258 257 256 255 254 254 253 253 252 252 252 251 250 250 250 251 250 249 250 249 250 250 252 253 253 254 255 257 258 259 258 257
274 272 269 268 269 269 268 267 269 269 267 265 263 262 261 260 259 258 257 256 255 254 254 253 252 252 252 252 251 251 251 251 250 250 249 250 251 251 251 252 253 254 256 257 257 258 258 258 257
276 275 273 271 271 271 270 269 270 270 268 266 264 263 262 260 260 257 256 254 253 253 254 253 252 252 252 252 251 251 251 250 250 250 250 251 252 252 252 252 253 255 256 256 257 258 258 257 256
279 277 276 274 273 272 272 272 270 270 269 266 266 265 263 261 261 258 254 253 252 253 253 253 252 252 252 252 251 251 251 251 250 251 251 252 252 252 253 253 254 255 256 256 256 256 257 257 257
282 279 278 277 276 273 273 273 272 273 270 267 267 266 264 263 261 259 255 253 253 253 252 252 252 252 251 251 251 251 250 251 251 251 251 251 252 253 253 253 255 255 255 256 256 256 257 258 258
283 281 280 279 277 274 273 274 274 274 272 270 267 266 265 265 263 261 258 255 254 253 252 253 253 253 252 252 251 250 250 250 250 251 251 251 252 253 253 254 255 256 256 256 257 257 258 259 260
284 283 283 281 280 277 275 274 275 275 274 273 270 266 265 266 265 262 259 256 254 255 253 253 253 253 253 252 252 252 251 251 251 252 252 252 253 253 254 254 256 256 257 258 258 259 259 260 260
286 285 284 283 281 280 277 275 276 276 275 274 273 268 266 266 264 261 258 256 255 257 255 254 253 253 253 253 252 252 252 252 253 252 252 253 252 253 254 255 257 257 258 259 259 259 260 260 261
287 286 284 283 282 283 281 281 278 278 277 276 274 271 268 266 264 261 258 256 256 258 256 254 254 254 253 253 253 253 253 253 254 254 254 253 254 254 254 256 257 258 259 259 259 260 261 261 261
288 286 284 283 284 284 283 283 282 280 279 277 276 275 272 269 266 262 259 257 257 259 257 255 255 255 254 254 254 254 254 254 255 255 255 254 255 255 254 255 256 257 258 259 260 262 262 262 262
288 286 285 284 286 286 287 285 285 284 282 280 279 278 277 273 269 264 260 257 257 258 257 256 255 255 255 255 255 255 256 256 256 256 256 256 256 257 256 255 256 257 258 259 260 261 262 262 262
289 289 288 287 287 289 289 286 288 289 285 283 282 280 278 276 274 268 264 258 258 259 257 254 255 256 256 256 256 256 257 257 257 257 258 258 258 258 257 256 256 257 258 259 259 260 262 262 263
291 290 290 290 291 291 289 289 290 291 287 284 282 282 280 278 275 269 264 260 260 260 258 255 256 257 257 257 256 257 258 258 258 258 259 260 260 259 258 257 256 257 258 259 259 260 261 262 262
291 291 291 291 291 292 292 291 291 292 289 286 284 284 283 281 277 268 265 263 262 262 259 259 258 259 257 257 257 258 258 258 259 259 260 260 260 259 258 257 257 257 258 259 260 260 261 262 263
290 291 291 291 292 292 292 293 293 293 290 287 286 284 284 283 281 274 268 264 263 262 260 261 262 260 260 259 258 258 258 259 259 260 260 260 261 260 259 258 258 257 258 259 260 261 261 262 263
291 289 289 290 289 290 292 293 294 294 292 290 289 287 286 284 282 279 273 266 264 263 261 263 263 262 261 260 259 259 259 259 260 261 261 261 261 260 260 259 259 258 259 260 261 261 262 262 262
291 290 289 289 289 290 291 293 293 292 292 291 289 286 287 286 283 281 276 268 264 264 264 265 265 263 261 261 261 262 261 260 261 261 262 261 261 261 261 261 261 260 260 260 261 261 262 262 262
Height
5817 5817 5818 5819 5820 5821 5822 5823 5823 5824 5825 5825 5826 5827 5828 5829 5830 5833 5832 5831 5831 5832 5832 5833 5833 5834 5835 5835 5836 5837 5838 5838 5839 5840 5840 5841 5842 5843 5843 5844 5845 5845 5846 5846 5846 5847 5847 5847 5848
5813 5814 5815 5816 5816 5817 5819 5819 5820 5821 5821 5821 5822 5823 5824 5825 5826 5827 5827 5828 5828 5829 5829 5829 5830 5831 5831 5832 5833 5834 5835 5836 5836 5837 5838 5839 5839 5840 5841 5842 5843 5843 5844 5844 5845 5845 5846 5846 5846
5809 5810 5811 5811 5812 5813 5815 5816 5816 5816 5817 5817 5818 5819 5820 5821 5822 5823 5823 5824 5825 5825 5825 5826 5827 5827 5828 5829 5830 5830 5831 5833 5834 5834 5835 5836 5837 5837 5838 5839 5840 5841 5841 5842 5842 5843 5844 5844 5845
5805 5806 5807 5807 5808 5809 5810 5811 5811 5811 5812 5812 5813 5814 5815 5817 5817 5818 5819 5820 5820 5821 5821 5822 5823 5823 5824 5825 5826 5827 5828 5829 5830 5831 5832 5833 5834 5834 5835 5837 5837 5838 5839 5839 5840 5841 5841 5842 5843
5800 5801 5802 5802 5803 5804 5805 5805 5806 5806 5807 5807 5808 5809 5810 5811 5812 5813 5814 5814 5815 5816 5817 5817 5818 5819 5820 5821 5821 5823 5824 5825 5826 5827 5828 5829 5830 5831 5832 5833 5834 5835 5836 5836 5837 5838 5839 5839 5840
5796 5796 5796 5796 5797 5798 5798 5799 5800 5800 5801 5802 5803 5803 5804 5805 5806 5807 5808 5809 5810 5811 5811 5812 5813 5814 5815 5816 5817 5818 5819 5820 5821 5823 5824 5825 5826 5827 5828 5829 5830 5831 5832 5833 5834 5834 5835 5836 5837
5790 5790 5790 5790 5791 5791 5792 5792 5793 5793 5794 5796 5796 5797 5798 5799 5800 5801 5802 5803 5804 5805 5806 5806 5807 5809 5810 5811 5812 5813 5814 5815 5816 5818 5819 5820 5821 5822 5823 5825 5826 5827 5828 5829 5830 5831 5831 5832 5833
5783 5784 5783 5783 5784 5785 5785 5785 5785 5786 5787 5789 5789 5790 5791 5793 5794 5795 5795 5797 5797 5798 5799 5800 5801 5803 5804 5805 5806 5807 5808 5809 5811 5812 5814 5815 5816 5817 5819 5820 5821 5822 5823 5824 5825 5826 5827 5828 5829
5776 5777 5776 5777 5777 5778 5778 5778 5778 5779 5780 5780 5781 5783 5785 5785 5786 5787 5788 5789 5790 5791 5792 5794 5795 5796 5797 5798 5800 5801 5802 5803 5805 5806 5808 5809 5810 5812 5813 5814 5815 5816 5817 5819 5820 5821 5822 5823 5824
5770 5770 5770 5771 5770 5770 5770 5770 5771 5771 5771 5772 5774 5775 5777 5777 5778 5779 5781 5782 5783 5784 5785 5786 5787 5788 5789 5791 5792 5794 5795 5797 5798 5800 5801 5802 5804 5805 5807 5808 5809 5811 5812 5813 5814 5815 5816 5817 5818
5763 5763 5763 5763 5763 5763 5763 5763 5763 5763 5763 5765 5766 5767 5768 5769 5770 5771 5772 5773 5775 5776 5777 5778 5779 5781 5782 5783 5785 5786 5788 5789 5791 5792 5794 5795 5797 5798 5800 5801 5803 5804 5805 5806 5808 5809 5810 5811 5812
5755 5755 5755 5755 5755 5755 5755 5755 5755 5755 5756 5756 5757 5758 5759 5760 5761 5762 5763 5764 5766 5767 5768 5769 5771 5772 5773 5775 5776 5778 5780 5781 5783 5784 5786 5787 5789 5791 5792 5794 5795 5797 5798 5799 5800 5802 5803 5804 5805
5748 5748 5748 5747 5747 5747 5747 5747 5747 5747 5747 5747 5747 5748 5749 5750 5752 5753 5754 5755 5756 5758 5759 5760 5762 5763 5764 5766 5767 5769 5771 5772 5774 5776 5777 5779 5781 5783 5784 5786 5787 5789 5790 5792 5793 5794 5795 5796 5798
5741 5740 5740 5740 5739 5739 5738 5738 5738 5739 5738 5737 5738 5738 5739 5740 5741 5742 5743 5744 5746 5747 5748 5750 5751 5753 5754 5756 5757 5759 5761 5763 5765 5767 5768 5770 5772 5774 5775 5777 5779 5780 5782 5783 5784 5786 5787 5788 5790
5733 5732 5732 5732 5731 5730 5730 5730 5730 5730 5728 5728 5727 5727 5728 5729 5729 5730 5731 5733 5735 5736 5737 5739 5740 5742 5743 5745 5747 5748 5750 5752 5754 5757 5759 5760 5762 5764 5766 5768 5769 5771 5772 5774 5775 5777 5778 5779 5781
5725 5725 5725 5725 5723 5721 5721 5722 5722 5719 5718 5718 5717 5716 5716 5717 5717 5718 5720 5721 5723 5724 5726 5727 5729 5731 5732 5734 5736 5737 5739 5741 5743 5746 5748 5750 5752 5754 5755 5758 5759 5761 5762 5764 5765 5767 5768 5769 5771
5718 5717 5716 5716 5714 5712 5711 5711 5712 5709 5707 5707 5706 5705 5705 5705 5705 5706 5707 5709 5710 5712 5713 5715 5717 5719 5721 5723 5725 5726 5728 5730 5732 5734 5737 5739 5741 5743 5745 5747 5749 5750 5752 5753 5755 5756 5758 5759 5760
5710 5708 5707 5707 5705 5703 5701 5701 5701 5699 5697 5696 5695 5694 5694 5694 5694 5695 5695 5696 5698 5700 5701 5703 5705 5707 5709 5711 5713 5715 5716 5718 5720 5722 5725 5727 5730 5732 5734 5736 5737 5739 5741 5742 5744 5745 5747 5748 5749
5701 5699 5698 5698 5695 5693 5691 5691 5690 5688 5686 5685 5684 5683 5682 5682 5682 5682 5683 5684 5686 5687 5688 5690 5692 5694 5696 5698 5700 5702 5704 5706 5708 5710 5712 5715 5717 5720 5722 5723 5725 5727 5729 5730 5731 5733 5734 5736 5737
5692 5690 5688 5687 5685 5682 5681 5680 5679 5677 5676 5673 5672 5671 5671 5671 5670 5671 5671 5671 5673 5674 5676 5677 5679 5680 5682 5685 5687 5689 5691 5693 5695 5697 5699 5702 5705 5707 5709 5711 5713 5714 5716 5717 5719 5720 5721 5722 5723
5683 5681 5679 5676 5675 5672 5670 5670 5669 5667 5665 5663 5661 5659 5659 5659 5659 5658 5658 5659 5660 5661 5663 5664 5665 5667 5669 5671 5673 5675 5677 5679 5681 5683 5686 5689 5691 5693 5695 5698 5699 5701 5703 5704 5705 5707 5708 5709 5709
5674 5672 5669 5666 5664 5662 5660 5657 5659 5657 5654 5652 5650 5649 5647 5647 5646 5646 5646 5646 5648 5649 5650 5651 5652 5654 5656 5658 5660 5662 5664 5666 5668 5670 5672 5675 5677 5679 5682 5684 5686 5687 5689 5690 5691 5693 5694 5695 5696
5665 5662 5660 5657 5654 5652 5650 5646 5647 5646 5644 5642 5640 5638 5636 5634 5634 5633 5634 5634 5635 5636 5637 5638 5640 5641 5643 5645 5647 5649 5651 5653 5655 5657 5658 5661 5663 5665 5667 5669 5671 5673 5675 5676 5678 5679 5680 5680 5681
5655 5653 5650 5648 5645 5643 5641 5637 5635 5635 5633 5632 5630 5627 5625 5623 5622 5621 5622 5622 5623 5624 5625 5626 5627 5628 5630 5632 5633 5635 5638 5640 5641 5643 5645 5646 5648 5651 5652 5655 5656 5658 5660 5662 5663 5664 5665 5666 5667
5648 5645 5641 5638 5635 5634 5631 5627 5626 5625 5622 5621 5619 5617 5614 5612 5610 5609 5609 5610 5610 5611 5612 5613 5615 5616 5617 5619 5620 5622 5624 5626 5628 5630 5631 5633 5634 5636 5638 5640 5642 5643 5645 5647 5648 5649 5650 5651 5652
5639 5636 5634 5629 5626 5625 5622 5618 5619 5615 5613 5610 5608 5606 5603 5601 5599 5597 5597 5597 5598 5599 5599 5600 5601 5603 5604 5606 5607 5609 5611 5612 5614 5616 5617 5619 5620 5622 5623 5625 5627 5628 5630 5631 5633 5634 5635 5636 5637
5630 5628 5625 5621 5616 5614 5612 5610 5609 5606 5603 5600 5598 5595 5592 5589 5587 5586 5585 5585 5585 5586 5587 5588 5589 5590 5591 5592 5594 5595 5597 5599 5600 5602 5603 5604 5606 5607 5608 5610 5611 5613 5615 5616 5618 5619 5620 5621 5622
5623 5619 5616 5611 5607 5603 5602 5601 5599 5596 5593 5591 5588 5585 5583 5580 5578 5576 5575 5574 5574 5574 5575 5576 5577 5577 5578 5579 5580 5582 5584 5585 5586 5587 5589 5590 5591 5592 5593 5595 5596 5598 5599 5601 5603 5604 5605 5606 5607
5614 5611 5607 5603 5599 5595 5591 5594 5591 5587 5583 5580 5578 5575 5573 5570 5568 5566 5564 5563 5562 5563 5564 5565 5564 5564 5565 5566 5567 5569 5570 5571 5572 5573 5574 5575 5576 5577 5579 5580 5581 5583 5584 5585 5587 5588 5590 5591 5592
5604 5602 5599 5595 5591 5586 5582 5585 5581 5577 5573 5570 5568 5565 5562 5560 5558 5556 5554 5553 5553 5553 5553 5553 5553 5553 5553 5554 5555 5556 5556 5557 5559 5559 5560 5561 5562 5563 5564 5565 5566 5568 5569 5570 5571 5573 5574 5575 5576